This demonstration page uses our WeatherBlox Daily Observations layout. Learn more.

Left ArrowRight Arrow

Hourly Observations for October 7, 2022

Temp ( °F °C ) Dew Point ( °F °C ) Humidity (%) Winds ( mph kmh ) Pressure ( in mb ) Visibility ( mi km ) Precip ( " mm )
12:52 am 00:52 Clear 57 13.9 49 9.4 74 74 NNW 6 9 30.19 1023 10 16 0.00 0.00
1:52 am 01:52 Clear 59 15 52 11.1 77 77 NNE 9 15 30.20 1023 10 16 0.00 0.00
2:52 am 02:52 Clear 58 14.4 51 10.6 78 78 NNE 8 13 30.22 1024 10 16 0.00 0.00
3:52 am 03:52 Clear 57 13.9 51 10.6 80 80 NNE 8 13 30.22 1024 10 16 0.00 0.00
4:52 am 04:52 Clear 55 12.8 50 10 83 83 N 7 11 30.24 1024 10 16 0.00 0.00
5:52 am 05:52 Clear 53 11.7 49 9.4 86 86 N 7 11 30.26 1025 10 16 0.00 0.00
6:52 am 06:52 Clear 52 11.1 49 9.4 89 89 N 7 11 30.28 1026 10 16 0.00 0.00
7:52 am 07:52 Sunny 52 11.1 47 8.3 83 83 N 6 9 30.31 1027 10 16 0.00 0.00
8:52 am 08:52 Sunny 55 12.8 46 7.8 72 72 NNE 14 22 30.34 1028 10 16 0.00 0.00
9:52 am 09:52 Sunny 58 14.4 45 7.2 62 62 NNE 9 15 30.36 1028 10 16 0.00 0.00
10:52 am 10:52 Sunny 62 16.7 46 7.8 56 56 NNE 6 9 30.37 1029 10 16 0.00 0.00
11:52 am 11:52 Mostly Sunny 66 18.9 45 7.2 47 47 NNE 12 19 30.37 1028 10 16 0.00 0.00
12:52 pm 12:52 Sunny 67 19.4 43 6.1 42 42 N 10 17 30.35 1028 10 16 0.00 0.00
1:52 pm 13:52 Sunny 67 19.4 38 3.3 34 34 N 10 17 30.32 1027 10 16 0.00 0.00
2:52 pm 14:52 Sunny 69 20.6 37 2.8 31 31 NNW 12 19 30.30 1026 10 16 0.00 0.00
3:52 pm 15:52 Partly Cloudy 68 20 38 3.3 33 33 NNW 12 19 30.31 1026 10 16 0.00 0.00
4:52 pm 16:52 Sunny 67 19.4 37 2.8 33 33 N 16 26 30.31 1026 10 16 0.00 0.00
5:52 pm 17:52 Sunny 60 15.6 40 4.4 47 47 NNE 18 30 30.33 1027 10 16 0.00 0.00
6:52 pm 18:52 Clear 57 13.9 39 3.9 51 51 N 12 19 30.35 1028 10 16 0.00 0.00
7:52 pm 19:52 Mostly Cloudy 55 12.8 38 3.3 52 52 N 12 19 30.37 1029 10 16 0.00 0.00
8:52 pm 20:52 Partly Cloudy 54 12.2 36 2.2 50 50 N 7 11 30.39 1029 10 16 0.00 0.00
9:52 pm 21:52 Mostly Cloudy 53 11.7 37 2.8 54 54 N 7 11 30.39 1029 10 16 0.00 0.00
10:52 pm 22:52 Mostly Cloudy 53 11.7 37 2.8 54 54 N 6 9 30.40 1029 10 16 0.00 0.00
11:52 pm 23:52 Cloudy 52 11.1 37 2.8 57 57 N 8 13 30.39 1029 10 16 0.00 0.00

Powered by AerisWeather